Date String (YYYY-MM-DD hh:mm:ss) UTC,Instrument flags,Ambient pressure (hPa),Sample flow (lpm),Bypass flow (lpm),Sample temperature (°C),Ambient temperature (°C),ASC tube jacket temperature (°C),LED temperature (°C),Box temperature (°C),Sample RH (%),Span deviation,Mass concentration (μg/m³),Mass concentration (μg/m³),Mass concentration (μg/m³)
DateTimeUTC,F1_M11,P_M11,Q1_M11,Q2_M11,T1_M11,T2_M11,T3_M11,T4_M11,T5_M11,U1_M11,ZSPAN_M11,X0_M11,X2_M11,X1_M11
2021-09-27 23:00:00,,0824.1,5.01,0.00,28.9,25.8,00.0,38.0,30.4,12.5,0001.2,0018.03,0006.19,0005.07
2021-09-27 23:01:00,,0824.1,5.00,0.00,28.9,26.2,00.0,38.0,30.5,12.5,0000.9,0018.45,0006.19,0005.08
2021-09-27 23:02:00,,0824.1,4.99,0.00,28.9,26.7,00.0,38.0,30.6,12.7,0001.0,0019.05,0006.29,0005.11
2021-09-27 23:03:00,,0824.1,5.01,0.00,28.9,27.1,00.0,38.0,30.7,12.7,0001.3,0018.26,0006.33,0005.12
2021-09-27 23:04:00,,0824.1,4.99,0.00,29.0,27.6,00.0,38.0,30.9,12.5,0001.9,0017.63,0006.38,0005.11
2021-09-27 23:05:00,,0824.1,5.00,0.00,29.1,27.9,00.0,38.0,31.0,12.5,0001.7,0019.21,0006.48,0005.12
2021-09-27 23:06:00,,0824.1,5.00,0.00,29.1,28.1,00.0,38.0,31.1,12.6,0002.0,0019.89,0006.54,0005.13
2021-09-27 23:07:00,,0824.1,4.99,0.00,29.2,27.9,00.0,38.0,31.0,12.7,0002.3,0020.58,0006.60,0005.13
2021-09-27 23:08:00,,0824.1,5.01,0.00,29.1,26.2,00.0,38.0,30.5,12.6,0002.6,0020.93,0006.64,0005.13
2021-09-27 23:09:00,,0824.1,5.01,0.00,28.9,25.6,00.0,38.0,30.3,12.5,0002.4,0021.53,0006.69,0005.15
2021-09-27 23:10:00,,0824.1,5.00,0.00,28.9,26.1,00.0,38.0,30.5,12.8,0001.9,0022.93,0006.74,0005.16
2021-09-27 23:11:00,,0824.1,4.98,0.00,28.9,26.5,00.0,38.0,30.6,13.0,0001.8,0023.79,0006.81,0005.16
2021-09-27 23:12:00,,0824.1,5.00,0.00,28.9,26.9,00.0,38.0,30.7,13.2,0001.5,0024.58,0006.84,0005.16
2021-09-27 23:13:00,,0824.1,5.01,0.00,29.0,27.4,00.0,38.0,30.8,13.0,0001.8,0024.51,0006.81,0005.14
2021-09-27 23:14:00,,0824.1,5.00,0.00,29.0,27.8,00.0,38.0,30.9,13.2,0001.6,0025.07,0006.82,0005.13
2021-09-27 23:15:00,,0824.1,5.01,0.00,29.1,28.1,00.0,38.0,31.0,13.3,0001.5,0024.99,0006.80,0005.12
2021-09-27 23:16:00,,0824.1,4.99,0.00,29.2,27.9,00.0,38.0,31.0,13.2,0001.8,0023.87,0006.78,0005.11
2021-09-27 23:17:00,,0824.1,4.99,0.00,29.1,26.3,00.0,38.0,30.6,13.2,0001.5,0022.47,0006.77,0005.10
2021-09-27 23:18:00,,0824.1,5.01,0.00,28.9,25.5,00.0,38.0,30.3,13.0,0001.4,0022.44,0006.78,0005.07
2021-09-27 23:19:00,,0824.0,5.00,0.00,28.9,25.9,00.0,38.0,30.4,13.1,0001.0,0023.47,0006.78,0005.07
2021-09-27 23:20:00,,0824.0,5.00,0.00,28.8,26.4,00.0,38.0,30.5,13.4,0000.6,0023.70,0006.75,0005.06
2021-09-27 23:21:00,,0824.0,4.99,0.00,28.9,26.9,00.0,38.0,30.6,13.4,0000.8,0022.28,0006.67,0005.03
2021-09-27 23:22:00,,0824.0,5.01,0.00,28.9,27.3,00.0,38.0,30.7,12.7,0001.2,0022.43,0006.64,0005.02
2021-09-27 23:23:00,,0824.0,4.99,0.00,29.0,27.7,00.0,38.0,30.9,12.2,0001.7,0021.34,0006.65,0005.01
2021-09-27 23:24:00,,0824.1,5.00,0.00,29.1,28.0,00.0,38.0,31.0,12.2,0001.6,0020.76,0006.61,0005.01
2021-09-27 23:25:00,,0824.1,5.00,0.00,29.1,28.0,00.0,38.0,31.0,12.0,0001.7,0021.52,0006.58,0005.01
2021-09-27 23:26:00,,0824.0,5.00,0.00,29.1,26.4,00.0,38.0,30.6,12.2,0001.5,0021.37,0006.54,0005.00
2021-09-27 23:27:00,,0824.0,5.01,0.00,28.9,25.5,00.0,38.0,30.3,12.5,0001.8,0021.77,0006.49,0004.98
2021-09-27 23:28:00,,0824.0,5.00,0.00,28.8,25.9,00.0,38.0,30.4,12.8,0001.9,0022.67,0006.50,0004.97
2021-09-27 23:29:00,,0824.1,5.01,0.00,28.8,26.3,00.0,38.0,30.5,13.1,0002.0,0022.48,0006.49,0004.96
2021-09-27 23:30:00,,0824.1,4.99,0.00,28.8,26.8,00.0,37.9,30.6,13.2,0002.3,0021.53,0006.47,0004.95
2021-09-27 23:31:00,,0824.1,5.00,0.00,28.9,27.3,00.0,37.9,30.7,12.7,0002.7,0021.06,0006.48,0004.93
2021-09-27 23:32:00,,0824.0,5.01,0.00,29.0,27.6,00.0,38.0,30.8,12.9,0002.7,0020.89,0006.56,0004.93
2021-09-27 23:33:00,,0824.0,4.99,0.00,29.0,27.9,00.0,38.0,30.9,13.3,0002.1,0020.18,0006.60,0004.91
2021-09-27 23:34:00,,0824.1,4.99,0.00,29.1,28.2,00.0,38.0,31.0,13.4,0001.9,0021.22,0006.60,0004.90
2021-09-27 23:35:00,,0824.1,5.00,0.00,29.1,27.5,00.0,38.0,30.8,13.4,0002.0,0021.78,0006.58,0004.89
2021-09-27 23:36:00,,0824.1,5.01,0.00,29.0,25.8,00.0,38.0,30.4,13.6,0002.3,0020.86,0006.56,0004.87
2021-09-27 23:37:00,,0824.1,4.99,0.00,28.9,25.6,00.0,38.0,30.3,13.7,0002.8,0020.89,0006.62,0004.88
2021-09-27 23:38:00,,0824.1,5.00,0.00,28.8,26.1,00.0,38.0,30.4,13.7,0002.1,0020.16,0006.60,0004.85
2021-09-27 23:39:00,,0824.1,5.01,0.00,28.8,26.5,00.0,37.9,30.5,13.8,0002.1,0019.64,0006.58,0004.85
2021-09-27 23:40:00,,0824.1,5.00,0.00,28.9,27.0,00.0,37.9,30.6,14.0,0001.8,0019.45,0006.58,0004.86
2021-09-27 23:41:00,,0824.1,5.00,0.00,28.9,27.4,00.0,37.9,30.8,14.1,0001.7,0020.30,0006.64,0004.85
2021-09-27 23:42:00,,0824.1,4.99,0.00,29.0,27.8,00.0,37.9,30.9,14.1,0001.1,0020.33,0006.65,0004.84
2021-09-27 23:43:00,,0824.1,5.02,0.00,29.1,28.0,00.0,38.0,31.0,14.1,0001.4,0019.71,0006.61,0004.83
2021-09-27 23:44:00,,0824.1,5.00,0.00,29.1,28.1,00.0,38.0,31.0,13.8,0002.0,0019.31,0006.57,0004.84
2021-09-27 23:45:00,,0824.1,5.00,0.00,29.1,26.8,00.0,38.0,30.7,13.7,0002.3,0018.31,0006.61,0004.84
2021-09-27 23:46:00,,0824.1,5.00,0.00,28.9,25.4,00.0,38.0,30.3,13.7,0002.2,0017.48,0006.67,0004.84
2021-09-27 23:47:00,,0824.1,5.01,0.00,28.8,25.7,00.0,38.0,30.3,13.7,0002.1,0018.50,0006.73,0004.84
2021-09-27 23:48:00,,0824.0,5.00,0.00,28.8,26.2,00.0,37.9,30.4,13.6,0002.0,0020.23,0006.74,0004.84
2021-09-27 23:49:00,,0824.1,4.99,0.00,28.8,26.7,00.0,37.9,30.5,13.6,0002.1,0020.26,0006.78,0004.85
2021-09-27 23:50:00,,0824.1,5.01,0.00,28.9,27.1,00.0,37.9,30.6,13.5,0001.9,0020.18,0006.74,0004.85
2021-09-27 23:51:00,,0824.1,4.99,0.00,28.9,27.5,00.0,37.9,30.8,13.3,0002.1,0021.11,0006.66,0004.85
2021-09-27 23:52:00,,0824.0,5.00,0.00,29.0,27.8,00.0,37.9,30.9,13.3,0002.1,0021.10,0006.58,0004.85
2021-09-27 23:53:00,,0824.1,4.99,0.00,29.0,28.1,00.0,38.0,31.0,13.4,0002.5,0022.14,0006.55,0004.85
2021-09-27 23:54:00,,0824.0,5.01,0.00,29.1,27.8,00.0,38.0,30.9,13.3,0002.3,0022.48,0006.56,0004.85
2021-09-27 23:55:00,,0824.0,4.99,0.00,29.0,26.0,00.0,38.0,30.4,13.4,0002.3,0022.55,0006.58,0004.85
2021-09-27 23:56:00,,0824.0,5.01,0.00,28.8,25.5,00.0,38.0,30.2,13.3,0002.1,0022.89,0006.54,0004.85
2021-09-27 23:57:00,,0824.0,4.99,0.00,28.8,25.9,00.0,37.9,30.3,13.0,0002.2,0023.28,0006.49,0004.84
2021-09-27 23:58:00,,0824.0,5.00,0.00,28.8,26.3,00.0,37.9,30.4,13.3,0002.1,0022.72,0006.50,0004.86
2021-09-27 23:59:00,,0824.0,4.99,0.00,28.8,26.8,00.0,37.9,30.5,13.3,0001.8,0021.46,0006.49,0004.87
